Regional Weather Roundup
Issued by NWS

Home | Current Version | Previous Version | Graphics & Text | Print | Product List | Glossary On
Versions: 1 2 3 4 5 6 7 8 9 10 11 12 13 14 15 16 17 18 19 20 21 22 23 24 25 26 27 28 29 30 31 32 33 34 35 36 37 38 39 40 41 42 43 44 45 46 47 48 49 50
000
ASUS43 KIND 032309
RWRIN

WEATHER ROUNDUP FOR INDIANA
NATIONAL WEATHER SERVICE INDIANAPOLIS IN
600 PM EST WED MAR 03 2021

NOTE: "FAIR" INDICATES FEW OR NO CLOUDS BELOW 12,000 FEET WITH NO
SIGNIFICANT WEATHER AND/OR OBSTRUCTIONS TO VISIBILITY.

* - STATION DOES NOT REPORT WEATHER SUCH AS PRECIPITATION OR FOG.

+ - STATION NOT QUALITY CONTROLLED BY THE NATIONAL WEATHER SERVICE.
    USE DATA WITH CAUTION...ESPECIALLY DEWPOINT AND RELATIVE
    HUMIDITY OBSERVATIONS.

INZ001>003-010>013-019-020-040000-
NORTHWEST INDIANA

CITY           SKY/WX    TMP DP  RH WIND       PRES   REMARKS
GARY /AIRPORT/ CLEAR     43  32  65 N7        30.05R
KNOX *+        CLEAR     48  32  53 N12       30.02R
LA PORTE +     CLEAR     44  32  63 N10       30.04R
MICHIGAN CITY+ CLEAR     43  32  65 N5        30.06R
MONTICELLO +   CLEAR     56  35  45 NW7       30.01R
RENSSELAER +   CLEAR     54  34  47 NW3       30.03R
VALPARAISO     CLEAR     48  31  51 N10       30.04R

$$

LMZ046-743>745-040000-
SOUTHERN LAKE MICHIGAN

STATION/POSITION TIME  TEMP    WIND        PRES    WAVE
                       AIR SEA DIR/SP/G            HT
                 (UTC) (F)     (DEG/KT/KT) (MB)    (FT)

$$

INZ004-005-014>016-021>024-040000-
NORTH CENTRAL INDIANA

CITY           SKY/WX    TMP DP  RH WIND       PRES   REMARKS
ELKHART        CLEAR     46  30  53 NW14      30.03R
GOSHEN         CLEAR     48  31  51 NW13      30.01R
LOGANSPORT +   CLEAR     55  32  41 NW10      30.02R
PERU/GRISSOM   CLEAR     56  35  46 NW10      29.99R
PLYMOUTH *+    CLEAR     48  30  49 NW9G16    30.02R
ROCHESTER +    CLEAR     54  32  43 NW9       30.02R
SOUTH BEND     CLEAR     45  30  55 NW8       30.04R
WARSAW +       CLEAR     50  32  50 NW13      30.01R

$$

INZ006>009-017-018-025>027-040000-
NORTHEAST INDIANA

CITY           SKY/WX    TMP DP  RH WIND       PRES   REMARKS
ANGOLA *+      CLEAR     50  28  43 NW10      29.97R
AUBURN +       CLEAR     52  28  40 W15G21    29.98R
FORT WAYNE     CLEAR     54  33  45 NW12      29.98R
HUNTINGTON +   CLEAR     55  29  38 NW7       29.99R
KENDALLVILLE + FAIR      50  30  45 NW12G20   29.98R

$$

INZ028-029-035-036-043>045-051>053-040000-
WEST CENTRAL INDIANA

CITY           SKY/WX    TMP DP  RH WIND       PRES   REMARKS
CRAWFORDSVL +  CLEAR     54  37  52 W8        30.02S
GREENCASTLE +  FAIR      56  38  49 NW10      30.02R
LAFAYETTE      CLEAR     60  35  39 NW10      30.02R
TERRE HAUTE    CLEAR     59  39  47 NW5       30.03R

$$

INZ030>032-037>040-046>048-054>057-064-065-040000-
CENTRAL INDIANA

CITY           SKY/WX    TMP DP  RH WIND       PRES   REMARKS
ANDERSON +     CLEAR     54  38  54 NW9       30.01R
COLUMBUS       CLEAR     57  32  38 NW14      30.00R
FRANKFORT +    CLEAR     55  37  50 NW8       30.02R
GREENWOOD *+   CLEAR     57  36  44 NW9       30.01R
INDIANAPOLIS   CLEAR     57  36  45 NW14      30.01R
-EAGLE CREEK   CLEAR     57  36  45 NW9       30.00R
KOKOMO +       CLEAR     54  39  57 W10       30.01R
MARION +       CLEAR     53  41  63 W9        30.00R
MT COMFORT *+  CLEAR     55  41  58 NW9       30.01R
SHELBYVILLE    CLEAR     61  33  35 W9        29.99R

$$

INZ033-034-041-042-049-050-058-059-040000-
EAST CENTRAL INDIANA

CITY           SKY/WX    TMP DP  RH WIND       PRES   REMARKS
MUNCIE         CLEAR     57  37  47 NW12      29.99R
PORTLAND +     FAIR      54  32  43 W9        29.97R
RICHMOND +     FAIR      54  37  54 NW10      29.99R

$$

INZ060-061-067>069-081>083-085>088-040000-
SOUTHWEST INDIANA

CITY           SKY/WX    TMP DP  RH WIND       PRES   REMARKS
EVANSVILLE     CLEAR     64  31  28 W10       30.03R
HUNTINGBURG +  CLEAR     61  34  36 SW8       30.03R
WASHINGTON +   CLEAR     60  39  45 W6        30.02R

$$

INZ062-063-066-070>080-084-089>092-040000-
SOUTH CENTRAL AND SOUTHEAST INDIANA

CITY           SKY/WX    TMP DP  RH WIND       PRES   REMARKS
BATESVILLE +   CLEAR     57  32  38 NW8       29.99R
BLOOMINGTON    CLEAR     60  34  37 NW7       30.01R
JEFFERSONVL +  FAIR      61  29  29 SW10      30.00R
MADISON *+     CLEAR     61  30  31 W7        30.01R

$$





USA.gov is the U.S. government's official web portal to all federal, state and local government web resources and services.